Wetbulb
70.24 70.19 74.14 74.37 74.15 73.52 72.87 71.88 71.81 71.40 71.05 70.32 69.54 68.78 67.88 67.55 67.10 66.11 65.37 65.60 65.79 66.54 67.56 68.69 69.37 69.72 69.52 70.03 70.55 71.98 73.87 74.40 74.29 73.56 74.86 74.75 73.68 74.36 74.45 76.35 76.18 74.64 76.08
71.57 71.27 74.07 74.28 74.07 73.34 72.98 72.91 72.57 72.36 72.11 71.55 70.51 69.76 68.48 67.99 67.75 67.25 66.38 65.84 66.11 66.46 67.07 68.28 69.44 69.44 69.63 69.85 70.57 71.75 72.80 74.07 74.45 74.75 74.72 74.55 74.89 75.00 74.69 75.11 75.20 74.63 75.38
70.93 72.73 72.49 74.43 73.98 73.59 73.40 73.17 72.96 72.89 72.62 72.16 71.06 70.33 69.07 68.43 68.24 67.87 67.40 66.98 66.48 66.59 67.13 67.74 68.27 69.69 69.95 69.74 70.20 71.85 72.57 73.67 73.81 74.32 74.64 72.69 72.77 75.27 74.38 74.70 74.57 74.98 75.00
69.64 72.31 72.32 74.26 73.86 73.83 73.71 73.68 73.51 73.36 72.71 72.05 71.00 70.58 69.66 69.00 68.77 68.54 68.27 68.01 67.67 67.23 67.45 67.55 68.03 68.63 69.52 70.08 70.22 71.61 72.29 73.18 73.06 73.63 72.58 72.39 73.08 75.05 74.34 75.28 72.91 73.93 74.95
68.72 70.12 74.18 74.41 74.06 74.23 74.13 74.13 73.98 73.51 72.34 71.32 70.33 69.69 69.30 69.52 69.28 68.92 68.74 68.82 68.45 68.09 67.65 67.66 67.93 68.42 69.72 70.21 71.32 72.02 72.05 72.59 72.54 72.36 71.77 72.02 72.14 73.98 74.66 74.98 74.80 74.96 75.18
64.68 68.61 73.70 75.03 74.63 74.33 73.83 74.18 73.78 72.59 71.97 71.40 69.72 69.23 68.75 69.30 69.62 69.17 68.44 68.56 68.63 68.58 67.97 67.42 67.77 68.96 69.37 69.97 71.27 71.76 72.21 72.06 72.10 71.14 71.08 72.06 71.96 73.90 74.60 74.65 75.03 74.91 75.00
66.92 67.57 70.91 73.45 72.07 71.29 71.08 71.67 72.41 71.50 70.51 69.70 69.16 68.86 68.80 68.61 68.43 68.17 68.20 68.23 68.30 68.41 68.36 67.36 67.57 68.47 69.21 69.41 70.50 71.12 71.72 71.50 71.30 70.61 71.39 70.80 71.61 72.95 74.13 74.28 74.68 74.28 74.53
65.81 67.69 69.70 71.40 70.96 70.38 71.09 70.99 69.02 67.38 66.73 66.73 67.04 67.23 67.33 67.45 67.16 67.10 67.14 67.25 67.40 68.08 68.29 67.75 67.38 68.02 68.82 69.32 69.51 70.25 70.93 71.21 71.03 69.97 71.24 70.72 71.65 72.63 73.58 73.61 73.84 73.61 73.29
66.04 66.64 67.92 68.25 69.95 70.33 69.83 68.02 66.12 64.52 64.20 64.97 65.14 65.13 65.52 65.67 65.84 66.03 66.77 66.80 67.27 68.19 67.76 67.71 67.72 67.92 68.19 68.51 69.00 69.74 70.62 70.93 69.64 70.86 71.22 71.37 71.94 72.74 73.19 73.01 72.57 73.01 73.01
63.65 63.13 66.23 67.22 65.23 66.82 66.97 66.81 65.88 65.05 64.82 64.09 64.66 64.52 64.39 64.06 64.95 65.86 66.63 66.75 67.18 67.60 67.69 67.57 67.17 66.90 67.78 68.20 69.00 69.25 69.73 70.79 69.51 70.94 71.19 71.22 71.83 72.42 72.08 71.38 70.53 72.17 72.53
62.13 64.62 64.56 64.86 65.57 66.48 66.51 66.36 66.27 66.84 65.78 65.02 64.97 64.12 63.40 63.58 64.11 64.92 66.50 67.15 66.84 67.25 67.37 67.04 66.98 67.19 67.40 67.88 68.74 68.64 69.09 68.09 68.65 70.92 71.09 72.11 72.25 72.44 71.48 72.18 70.96 71.21 71.84
61.73 63.93 64.76 64.91 65.91 67.11 64.68 67.55 67.36 66.51 66.25 65.62 64.75 64.00 64.25 64.10 64.32 64.19 65.22 65.40 66.34 66.31 66.65 66.50 66.55 66.76 65.80 64.90 66.48 67.32 66.48 66.64 68.70 69.34 70.63 72.11 71.86 72.23 71.93 71.62 70.84 71.56 72.62
62.98 64.40 63.70 65.20 66.51 67.41 65.80 66.13 65.38 65.38 65.35 65.57 64.97 64.73 64.32 63.73 63.45 63.98 65.04 65.29 65.16 65.44 64.76 64.92 64.61 64.71 63.78 63.11 64.17 66.02 65.92 65.64 68.25 69.32 70.69 72.23 71.84 72.04 71.36 70.65 70.75 70.34 70.41
62.97 64.26 66.17 67.05 66.75 68.09 67.09 65.39 65.18 65.89 65.01 63.73 64.75 64.82 63.79 63.62 63.76 64.40 64.02 64.33 64.60 64.91 63.94 64.78 64.31 64.90 63.72 63.54 65.91 65.76 66.21 65.31 69.09 68.08 69.59 71.97 71.45 71.22 71.03 71.19 70.42 70.57 70.19
63.63 63.77 66.78 66.74 68.07 68.59 68.00 66.34 66.29 66.27 64.47 64.53 64.69 64.64 64.20 63.39 62.97 63.63 64.29 63.72 63.70 63.64 63.45 63.69 64.38 63.98 62.70 63.13 65.62 66.50 66.44 65.30 69.59 69.76 70.22 71.27 70.54 70.94 71.07 71.19 70.23 69.65 70.38
64.27 65.01 66.48 67.22 68.08 68.03 67.31 67.23 66.55 66.53 65.64 65.57 65.04 62.59 63.53 63.92 63.23 63.81 63.39 63.76 63.43 63.50 63.96 63.97 64.10 64.14 64.32 64.91 65.59 67.18 66.87 67.30 68.84 69.64 69.86 69.82 70.18 69.84 70.15 70.30 69.35 70.11 70.16
64.26 66.27 66.17 66.65 66.81 67.37 67.21 67.36 67.20 66.73 66.65 65.60 65.62 63.74 63.28 64.65 63.69 64.23 63.57 63.50 62.99 63.25 63.08 63.96 64.25 64.58 64.47 65.87 66.21 66.49 66.67 67.01 68.38 69.74 69.11 68.78 68.77 69.65 69.83 69.44 70.28 70.52 70.45
65.15 66.10 66.78 64.98 66.98 67.89 68.64 67.62 67.16 66.71 67.36 66.87 66.80 64.75 62.47 64.09 64.48 64.29 63.59 63.52 63.76 63.59 63.28 63.07 63.48 64.13 63.79 64.40 65.18 65.01 65.23 67.31 68.42 68.99 68.60 67.73 67.37 67.74 69.03 69.83 69.75 70.38 70.68
65.22 66.33 66.55 67.47 65.98 68.31 68.19 65.12 66.19 67.97 67.98 68.57 66.87 63.74 62.82 63.16 65.12 64.87 63.85 64.20 64.16 63.16 63.03 63.48 62.90 62.93 63.89 63.88 64.69 64.48 65.42 66.69 68.68 68.55 67.69 67.25 67.27 67.38 67.43 69.10 69.10 69.22 69.72
65.43 67.04 67.42 67.02 68.09 68.95 66.69 65.81 64.17 68.07 68.45 67.77 65.99 63.63 63.16 62.93 64.81 65.37 63.93 63.65 64.62 63.10 62.43 63.01 62.98 63.74 63.67 64.12 65.28 64.55 65.53 66.96 67.95 66.78 67.14 67.45 66.85 66.49 67.25 65.84 67.32 67.77 68.88
65.36 66.35 67.16 67.21 68.54 67.60 65.16 65.40 66.31 66.47 67.69 66.09 66.62 65.33 64.38 63.99 64.10 65.04 64.15 63.71 64.36 63.25 62.75 62.75 63.45 62.78 62.63 63.48 62.75 62.74 64.44 67.27 66.33 66.76 67.18 66.73 65.62 65.44 65.60 66.71 66.71 66.20 67.05
64.26 65.81 66.99 67.10 68.04 67.54 67.01 68.12 67.32 67.22 67.16 66.98 67.08 66.05 65.44 64.20 64.91 64.92 63.94 63.44 63.61 63.28 63.61 62.67 63.76 62.29 62.21 63.29 62.01 62.28 59.20 61.79 64.37 65.44 65.69 64.75 65.15 65.51 65.26 65.64 66.06 66.42 66.44
63.54 65.31 66.18 67.44 67.81 68.17 68.65 67.47 67.38 66.55 65.51 66.87 66.27 64.86 63.98 64.85 65.08 65.16 64.54 64.21 63.83 64.66 63.33 62.73 62.99 62.25 61.97 63.08 63.94 62.25 58.31 57.44 60.89 63.94 64.06 64.42 64.85 64.54 64.81 64.91 65.13 65.77 65.61
62.70 64.76 66.62 67.21 67.43 67.40 68.07 67.21 66.83 64.71 63.06 65.69 65.46 65.71 63.54 65.05 64.51 64.46 64.59 64.28 64.31 64.53 63.01 62.88 63.93 62.53 62.28 60.85 63.22 64.51 64.74 62.11 58.51 58.29 62.79 63.64 64.27 63.65 64.16 64.37 64.44 65.11 65.50
63.14 64.33 66.11 67.19 67.16 68.53 68.72 68.08 66.42 65.83 65.47 65.93 65.40 64.65 64.52 63.01 65.07 64.77 64.64 65.07 63.89 63.79 64.16 63.68 63.70 63.39 63.98 62.97 63.27 63.37 63.10 62.49 62.17 59.82 57.93 60.36 63.04 63.81 64.11 64.09 64.45 64.76 65.43
62.55 63.45 65.85 66.87 66.70 68.02 68.86 67.78 67.64 65.18 64.78 64.55 63.40 63.75 64.06 64.57 63.72 64.76 64.45 65.22 64.84 64.10 65.22 65.06 64.49 63.70 64.45 64.53 64.69 63.30 62.49 60.93 60.20 59.68 58.72 59.67 60.33 62.15 63.86 63.99 63.86 63.68 64.35
MSLP
1008.64 1009.47 1009.86 1010.50 1011.24 1011.71 1011.96 1012.29 1012.57 1012.87 1013.07 1013.29 1013.46 1013.62 1013.87 1014.01 1014.21 1014.33 1014.46 1014.59 1014.58 1014.48 1014.44 1014.58 1014.46 1014.44 1014.28 1014.10 1014.04 1014.14 1014.13 1014.07 1014.11 1013.88 1014.28 1014.73 1015.41 1015.57 1015.53 1015.59 1015.24 1015.23 1016.18
1008.15 1009.28 1009.87 1010.32 1011.09 1011.53 1011.76 1012.05 1012.29 1012.72 1012.96 1013.24 1013.38 1013.50 1013.67 1013.92 1014.04 1014.13 1014.26 1014.26 1014.27 1014.23 1014.26 1014.41 1014.23 1014.15 1014.00 1013.92 1013.87 1013.98 1013.97 1013.93 1013.92 1013.87 1014.29 1014.60 1015.00 1015.50 1015.37 1015.35 1015.67 1015.69 1016.46
1008.28 1009.13 1010.04 1010.46 1010.97 1011.29 1011.63 1011.96 1012.09 1012.50 1012.81 1013.01 1013.06 1013.34 1013.43 1013.73 1013.76 1013.74 1013.84 1013.98 1014.03 1014.09 1014.11 1014.06 1013.95 1013.93 1013.76 1013.72 1013.69 1013.76 1013.73 1013.79 1013.86 1013.86 1014.13 1014.60 1014.68 1014.97 1015.04 1015.57 1015.88 1016.10 1016.66
1008.25 1009.22 1009.60 1010.33 1010.77 1011.08 1011.48 1011.81 1011.96 1012.24 1012.47 1012.74 1012.93 1013.03 1013.06 1013.30 1013.37 1013.42 1013.46 1013.64 1013.72 1013.83 1013.88 1013.72 1013.67 1013.59 1013.55 1013.49 1013.54 1013.52 1013.58 1013.67 1013.68 1013.88 1013.96 1014.13 1014.43 1014.76 1014.96 1015.39 1015.98 1016.26 1016.69
1008.02 1008.34 1009.06 1009.88 1010.37 1010.82 1011.14 1011.53 1011.74 1011.95 1012.20 1012.46 1012.54 1012.65 1012.72 1012.89 1013.01 1013.10 1013.19 1013.29 1013.33 1013.42 1013.52 1013.45 1013.36 1013.35 1013.31 1013.32 1013.33 1013.39 1013.44 1013.50 1013.51 1013.66 1013.61 1013.79 1014.28 1014.51 1014.70 1015.22 1015.88 1016.29 1016.67
1007.56 1007.91 1009.19 1009.82 1010.28 1010.69 1010.97 1011.24 1011.41 1011.64 1011.86 1012.03 1012.13 1012.16 1012.35 1012.44 1012.49 1012.63 1012.75 1012.89 1012.98 1013.05 1013.14 1013.12 1013.17 1013.20 1013.18 1013.27 1013.12 1013.22 1013.30 1013.40 1013.42 1013.39 1013.31 1013.58 1013.94 1014.34 1014.54 1015.05 1015.63 1016.16 1016.51
1007.71 1008.33 1009.33 1009.75 1010.22 1010.60 1010.86 1011.00 1011.19 1011.39 1011.59 1011.71 1011.77 1011.88 1012.03 1012.14 1012.22 1012.28 1012.33 1012.40 1012.40 1012.55 1012.66 1012.77 1012.87 1012.95 1013.04 1013.08 1013.02 1013.08 1013.20 1013.26 1013.28 1013.16 1013.22 1013.64 1013.81 1014.22 1014.72 1015.00 1015.45 1015.94 1016.52
1007.96 1008.53 1009.13 1009.87 1010.19 1010.52 1010.61 1010.84 1011.13 1011.39 1011.64 1011.80 1011.91 1011.87 1011.85 1011.94 1011.96 1011.90 1011.85 1011.85 1011.82 1011.88 1012.14 1012.37 1012.46 1012.66 1012.83 1012.92 1012.90 1012.99 1013.18 1013.27 1013.07 1013.21 1013.17 1013.57 1013.89 1014.22 1014.59 1015.14 1015.64 1015.84 1016.61
1008.18 1008.64 1009.00 1009.34 1009.77 1010.13 1010.30 1010.56 1011.01 1011.32 1011.54 1011.62 1011.66 1011.67 1011.64 1011.58 1011.45 1011.37 1011.30 1011.29 1011.26 1011.26 1011.65 1011.91 1012.11 1012.38 1012.62 1012.76 1012.79 1012.85 1012.99 1013.11 1013.15 1012.93 1013.29 1013.55 1013.87 1014.20 1014.32 1014.99 1015.45 1015.91 1016.74
1007.75 1008.20 1008.65 1008.84 1009.05 1009.45 1010.01 1010.55 1010.80 1010.89 1011.01 1011.16 1011.08 1011.13 1011.24 1011.12 1010.95 1010.79 1010.74 1010.82 1010.82 1010.75 1011.11 1011.50 1011.77 1012.11 1012.36 1012.54 1012.60 1012.68 1012.76 1012.91 1012.97 1012.85 1013.13 1013.33 1013.67 1014.22 1014.75 1015.39 1015.51 1016.16 1016.84
1006.98 1007.60 1008.19 1008.46 1008.99 1009.44 1009.61 1009.83 1010.29 1010.23 1010.56 1010.63 1010.56 1010.61 1010.67 1010.70 1010.37 1010.13 1009.87 1010.01 1010.10 1010.32 1010.63 1011.14 1011.39 1011.80 1012.02 1012.24 1012.42 1012.47 1012.58 1012.67 1012.57 1012.68 1013.06 1013.22 1013.62 1014.22 1014.98 1014.41 1015.89 1016.42 1017.00
1006.52 1007.13 1007.82 1008.46 1009.12 1009.66 1009.67 1009.55 1009.68 1009.77 1010.07 1010.37 1010.49 1010.41 1010.52 1010.43 1010.29 1010.05 1009.72 1009.72 1009.68 1010.09 1010.40 1010.77 1011.14 1011.48 1011.72 1011.90 1012.02 1012.17 1012.39 1012.21 1012.20 1012.44 1012.80 1013.19 1013.76 1014.19 1014.70 1015.26 1015.37 1016.70 1017.10
1006.82 1007.24 1007.90 1008.60 1009.15 1009.64 1009.75 1009.62 1009.74 1009.54 1009.92 1009.99 1010.16 1010.24 1010.34 1010.30 1010.03 1009.63 1009.52 1009.56 1009.68 1009.84 1010.30 1010.56 1010.84 1011.14 1011.33 1011.50 1011.38 1011.65 1011.76 1011.65 1011.96 1012.37 1012.62 1013.11 1013.52 1014.14 1014.85 1015.18 1016.01 1016.83 1017.27
1006.64 1007.42 1008.01 1008.55 1009.07 1009.43 1009.62 1009.74 1009.45 1009.36 1009.75 1009.70 1009.57 1009.87 1010.08 1010.07 1009.90 1009.68 1009.54 1009.29 1009.55 1009.77 1010.02 1010.27 1010.47 1010.62 1010.82 1010.87 1010.81 1011.00 1011.09 1011.07 1011.65 1012.13 1012.55 1013.02 1013.42 1013.96 1014.71 1015.35 1016.25 1016.85 1017.46
1006.97 1007.51 1008.13 1008.66 1009.03 1009.39 1009.65 1009.64 1009.60 1009.61 1009.57 1009.49 1009.41 1009.38 1009.51 1009.66 1009.74 1009.64 1009.42 1009.33 1009.25 1009.34 1009.81 1010.21 1010.27 1010.49 1010.53 1010.48 1010.35 1010.48 1010.72 1010.67 1011.36 1011.77 1012.70 1013.10 1013.62 1013.96 1014.69 1015.03 1016.09 1017.07 1017.48
1007.07 1007.62 1008.07 1008.58 1008.88 1009.13 1009.32 1009.40 1009.41 1009.32 1009.21 1009.26 1009.23 1009.05 1008.80 1009.16 1009.45 1009.41 1009.25 1009.20 1009.21 1009.10 1009.35 1009.82 1009.81 1010.11 1010.16 1010.16 1010.27 1010.45 1010.47 1010.78 1011.51 1011.44 1012.62 1013.23 1013.76 1014.24 1014.88 1015.25 1015.78 1017.16 1017.75
1006.99 1007.52 1007.97 1008.27 1008.53 1008.77 1008.87 1008.95 1008.98 1009.00 1008.82 1009.08 1009.01 1009.06 1008.96 1009.05 1009.16 1009.14 1009.06 1008.97 1008.98 1008.94 1009.22 1009.48 1009.58 1009.93 1009.77 1009.85 1010.13 1010.57 1010.71 1010.98 1011.21 1011.58 1012.86 1013.39 1014.04 1014.43 1015.09 1015.38 1015.99 1016.88 1017.51
1007.12 1007.35 1007.72 1007.91 1008.09 1008.32 1008.51 1008.58 1008.58 1008.54 1008.56 1008.69 1008.63 1008.80 1008.88 1008.75 1008.73 1008.86 1008.82 1008.68 1008.64 1008.76 1009.09 1009.36 1009.59 1009.75 1009.69 1009.92 1010.17 1010.60 1010.73 1011.04 1011.19 1011.70 1012.86 1013.54 1014.29 1015.05 1015.51 1015.67 1016.35 1016.75 1017.14
1007.10 1007.35 1007.55 1007.75 1008.08 1008.14 1008.24 1008.01 1008.30 1008.25 1008.19 1008.25 1008.46 1008.60 1008.69 1008.59 1008.22 1008.42 1008.54 1008.40 1008.30 1008.64 1008.93 1009.26 1009.47 1009.60 1009.76 1009.90 1010.15 1010.40 1010.69 1010.74 1011.21 1011.64 1012.86 1013.57 1014.32 1015.03 1015.68 1016.02 1016.57 1016.94 1017.68
1007.00 1007.29 1007.58 1007.76 1007.89 1008.01 1007.92 1007.69 1008.01 1008.05 1007.94 1008.06 1008.21 1008.41 1008.40 1008.30 1007.94 1008.12 1008.30 1008.23 1008.32 1008.53 1008.79 1009.07 1009.32 1009.20 1009.42 1009.59 1010.03 1010.34 1010.36 1010.87 1011.13 1011.78 1012.81 1013.65 1014.58 1015.31 1015.77 1016.60 1017.03 1017.88 1018.35
1006.91 1007.14 1007.39 1007.44 1007.64 1007.80 1007.65 1007.53 1007.68 1007.49 1007.71 1007.84 1008.07 1007.97 1007.99 1007.92 1007.85 1007.96 1008.03 1008.07 1008.18 1008.30 1008.45 1008.67 1008.95 1009.30 1009.52 1009.65 1010.31 1010.79 1011.08 1011.09 1011.43 1012.01 1013.16 1014.03 1014.92 1015.60 1016.16 1016.62 1017.25 1018.13 1019.04
1006.80 1006.98 1007.17 1007.29 1007.36 1007.54 1007.32 1007.26 1007.42 1007.39 1007.42 1007.48 1007.86 1007.78 1007.45 1007.48 1007.58 1007.80 1007.87 1007.91 1008.11 1008.13 1008.40 1008.43 1008.72 1009.32 1009.67 1009.91 1010.14 1010.81 1011.50 1012.21 1012.42 1012.89 1013.52 1014.37 1015.15 1015.80 1016.63 1017.25 1017.91 1018.31 1019.13
1006.45 1006.69 1006.93 1007.04 1007.29 1007.43 1007.37 1007.16 1007.13 1007.29 1007.43 1007.44 1007.65 1007.76 1007.56 1007.54 1007.62 1007.74 1007.76 1008.02 1008.20 1008.31 1008.38 1008.52 1009.01 1009.50 1009.96 1010.05 1009.99 1010.28 1011.06 1011.85 1012.49 1013.22 1013.95 1014.71 1015.47 1016.36 1017.04 1017.70 1018.18 1018.27 1019.64
1006.15 1006.49 1006.65 1006.93 1007.15 1007.28 1007.41 1007.14 1007.31 1007.65 1007.63 1007.58 1007.58 1007.69 1007.71 1007.57 1007.67 1007.89 1007.84 1008.02 1008.04 1008.31 1008.24 1008.78 1009.16 1009.94 1010.13 1010.42 1010.44 1010.11 1010.26 1011.55 1012.64 1013.12 1014.19 1015.26 1015.90 1016.74 1017.29 1018.13 1018.38 1019.51 1019.85
1005.78 1006.28 1006.60 1006.85 1007.03 1007.21 1007.35 1007.41 1007.39 1007.58 1007.69 1007.60 1007.59 1007.67 1007.85 1007.85 1007.81 1007.88 1008.08 1008.01 1008.17 1008.36 1008.24 1008.69 1009.10 1009.49 1009.88 1010.20 1010.12 1010.65 1011.14 1012.09 1012.37 1012.27 1014.03 1014.57 1016.49 1017.37 1017.84 1018.48 1019.06 1019.40 1019.96
1005.57 1006.13 1006.51 1006.76 1006.95 1007.14 1007.08 1007.27 1007.37 1007.65 1007.67 1007.63 1007.67 1007.90 1008.12 1008.11 1008.07 1008.04 1008.23 1008.29 1008.52 1008.59 1008.44 1008.50 1009.05 1009.42 1009.89 1009.76 1010.42 1010.83 1011.19 1011.71 1013.17 1013.25 1014.92 1015.54 1016.65 1017.73 1018.35 1019.07 1019.02 1019.68 1020.25
Wind_Speed
16 17 20 18 16 14 12 13 11 9 8 8 8 8 7 7 7 6 5 5 6 6 8 10 9 10 12 11 11 10 11 9 9 6 8 10 10 11 12 10 10 15 14
18 15 19 18 16 14 13 12 11 10 10 10 9 10 9 8 10 9 8 7 7 8 9 11 10 11 11 12 11 10 11 9 11 13 13 10 12 16 12 8 8 14 15
15 13 15 16 16 14 13 12 11 11 10 10 10 11 11 11 11 11 11 10 8 9 10 12 11 11 12 13 12 11 10 9 9 10 11 7 7 12 12 11 13 17 14
12 13 13 17 16 15 13 12 11 11 10 10 10 10 11 13 14 13 12 12 11 10 12 12 13 12 13 13 12 11 10 10 7 10 7 8 7 14 15 16 17 19 18
2 9 14 19 17 15 14 12 11 10 9 10 10 12 12 14 14 14 14 14 14 13 12 13 12 13 13 14 12 10 9 10 7 8 7 6 6 12 17 19 20 19 20
5 10 15 14 13 12 12 10 10 9 9 10 12 12 13 13 13 13 15 16 16 17 14 14 12 12 13 14 12 10 8 9 8 8 7 6 7 13 17 19 19 20 19
2 9 12 12 9 6 6 7 7 7 7 8 10 10 10 11 13 14 14 17 18 17 17 15 13 11 10 11 11 10 9 8 7 7 5 5 8 17 18 18 18 19 18
5 6 7 11 9 6 6 5 3 1 3 6 8 10 11 13 15 16 17 17 19 17 19 17 14 11 10 10 10 9 9 10 8 6 5 5 10 16 20 20 19 20 19
3 4 5 7 8 11 11 8 6 3 2 6 8 11 13 14 16 17 17 17 18 18 18 18 15 12 10 10 11 9 10 11 7 3 5 4 19 22 23 21 20 18 18
9 6 3 7 4 7 9 12 10 8 5 4 9 10 10 12 15 18 17 17 18 17 18 18 16 13 11 10 10 10 10 10 6 4 4 6 23 21 21 19 21 19 19
4 6 6 1 5 4 4 6 11 8 7 7 9 7 3 5 8 9 13 17 16 17 17 17 16 13 11 10 10 9 11 4 7 4 4 14 21 24 24 19 18 16 18
6 3 4 7 6 2 6 3 2 4 2 3 4 5 3 6 6 9 9 7 9 13 14 16 13 14 11 5 7 10 4 8 5 4 4 17 21 23 26 26 25 19 20
5 2 6 4 3 1 4 3 2 3 0 2 5 4 4 5 6 5 3 3 4 9 6 10 9 6 8 7 6 7 8 9 5 4 5 18 19 21 23 22 21 18 18
5 3 3 4 4 2 2 5 5 1 2 4 5 5 4 4 5 4 3 4 4 4 7 5 4 6 8 9 6 7 10 7 5 3 7 17 17 20 21 21 20 22 21
2 4 1 4 1 0 3 4 4 2 4 5 6 6 5 4 3 5 4 4 4 6 6 6 6 6 7 7 8 9 8 5 9 6 5 18 17 19 26 26 23 18 19
3 2 3 2 2 3 3 5 4 3 5 4 5 5 4 3 3 4 4 3 4 4 5 5 6 6 6 7 6 5 7 5 10 8 7 9 20 22 24 25 26 20 20
3 3 3 4 7 5 7 5 4 4 4 4 4 2 1 4 4 6 5 3 4 4 7 5 6 5 4 4 4 4 3 6 7 9 10 8 13 21 23 25 25 25 23
3 4 3 3 2 4 2 3 3 5 3 3 3 1 3 5 5 5 4 2 4 4 5 5 6 4 5 5 4 4 4 7 8 10 10 10 9 8 16 20 20 22 23
5 3 3 1 4 2 4 5 4 4 2 2 2 3 3 7 6 4 4 3 3 4 5 5 6 6 4 4 5 8 6 5 7 8 13 12 10 7 6 13 15 16 19
5 4 3 3 2 2 5 4 2 1 1 3 3 3 5 5 6 4 4 4 4 4 5 4 6 5 6 5 4 3 5 6 5 8 13 11 11 9 9 10 9 10 15
6 5 5 4 3 2 5 1 0 1 2 4 3 4 7 5 7 4 4 5 4 5 6 8 4 5 5 5 5 4 4 4 4 8 11 10 13 10 12 9 7 8 8
6 6 5 5 2 3 4 2 1 0 2 1 1 1 2 4 6 4 5 6 6 4 5 7 6 3 3 4 4 4 4 3 3 7 9 10 12 10 9 10 9 10 5
7 6 6 4 2 1 4 4 1 3 3 1 1 1 3 1 3 4 5 4 5 4 4 5 5 3 4 1 6 4 4 3 5 5 11 9 11 9 9 10 9 9 7
8 7 6 4 3 4 4 5 5 3 4 2 2 3 1 2 3 4 4 5 6 4 6 5 8 2 8 3 3 0 7 5 3 8 8 10 10 9 10 7 8 7 9
8 7 5 5 4 2 1 4 4 4 3 3 2 3 5 3 2 4 4 4 3 2 5 7 7 12 8 7 4 4 7 5 4 7 10 10 10 7 7 8 7 7 8
8 8 6 5 3 3 1 2 3 5 6 4 2 4 4 3 1 4 4 1 2 2 2 5 6 10 8 6 6 5 7 5 6 7 9 11 10 8 7 6 8 7 5
Wind_Direction
131 152 157 160 169 176 182 193 200 208 210 219 233 240 258 287 305 320 314 300 285 272 272 270 267 274 277 280 286 291 302 296 227 216 258 160 164 160 194 165 149 117 121
126 149 159 160 171 182 192 201 205 214 218 227 241 246 249 266 284 292 294 293 288 276 266 264 258 266 273 276 281 288 299 289 245 208 220 203 174 179 171 154 158 122 128
114 135 159 160 175 189 199 209 211 219 225 234 240 239 241 249 260 272 284 289 280 276 264 262 261 268 267 272 274 282 292 296 233 224 206 199 180 170 157 149 129 129 128
120 147 157 170 182 193 204 214 217 223 235 250 254 253 249 248 249 259 268 272 274 268 267 256 259 258 264 267 270 276 287 300 239 222 208 202 195 170 158 147 146 147 147
121 162 137 172 186 196 205 217 223 230 240 251 260 260 262 260 257 260 270 272 266 261 257 256 252 256 261 261 260 271 280 295 254 227 214 191 186 173 151 148 154 149 145
220 101 143 159 180 199 215 232 239 248 256 261 267 269 266 266 268 268 262 263 262 256 249 247 249 256 260 268 269 257 263 287 258 230 221 205 187 176 158 153 155 151 136
328 100 129 148 166 188 225 249 260 279 297 293 284 282 281 282 280 274 266 259 256 251 243 239 239 246 267 269 277 269 259 267 253 239 187 222 182 159 156 149 148 139 136
42 76 128 134 134 150 156 159 137 56 330 302 290 288 282 277 276 273 267 260 260 246 237 232 232 240 258 281 278 263 256 261 255 241 213 166 161 154 149 145 144 138 142
148 148 162 138 171 182 181 169 146 153 263 285 292 286 279 275 274 272 266 258 258 242 232 230 224 235 252 268 271 247 241 257 259 217 187 142 168 163 157 148 139 138 148
174 214 117 186 215 171 156 168 170 195 230 266 289 288 286 284 274 266 259 253 251 240 225 223 224 231 236 250 256 246 234 246 251 223 168 173 169 168 146 152 150 154 159
162 163 200 168 48 13 300 181 192 229 207 253 284 313 282 253 273 285 247 235 237 227 219 217 219 223 227 232 239 235 229 230 221 203 165 170 163 157 153 156 150 163 165
197 120 57 61 66 353 280 275 304 292 357 322 299 294 298 299 298 281 290 276 237 215 215 215 208 221 225 229 209 221 214 236 182 198 178 175 178 169 166 167 163 180 176
71 75 65 94 128 359 304 329 300 248 159 242 252 277 255 265 272 270 259 231 201 205 197 203 204 218 210 211 234 186 204 229 177 186 181 169 173 174 164 159 164 169 185
130 73 78 83 103 216 311 307 298 357 47 283 254 209 236 257 247 290 284 231 203 190 202 212 207 203 213 220 213 199 204 216 163 159 167 163 173 173 160 153 160 170 186
114 71 52 74 139 186 248 277 312 283 262 265 270 219 211 241 283 264 232 270 236 190 201 200 214 215 214 215 212 194 235 195 156 145 155 164 149 144 153 155 152 172 169
133 201 125 203 142 230 245 252 267 266 275 262 279 271 129 236 240 268 270 262 244 253 182 195 203 215 242 190 199 223 227 157 183 144 143 155 157 152 156 146 145 175 164
149 180 190 194 201 204 230 234 230 266 250 256 287 125 199 270 245 249 264 233 246 228 181 207 235 215 202 169 202 216 267 173 167 128 132 134 142 146 150 150 157 162 162
231 175 176 278 284 229 280 255 272 263 250 252 257 220 250 267 234 245 259 231 225 204 182 186 227 208 196 185 170 199 283 172 135 133 146 139 147 152 156 160 163 158 157
192 211 203 138 258 320 285 256 280 251 194 207 231 216 233 264 252 216 239 247 192 182 178 193 211 200 178 203 196 192 154 136 130 155 144 139 137 139 146 146 138 145 164
190 170 196 214 242 330 271 254 219 279 188 195 235 239 235 264 252 217 236 217 189 177 192 194 213 175 185 181 164 171 149 158 162 161 140 129 125 122 137 131 129 153 163
189 179 204 193 230 264 281 351 18 327 290 193 211 238 247 231 264 217 229 201 183 190 197 187 162 192 179 175 123 123 134 96 159 159 129 128 127 129 134 141 137 143 166
188 203 180 211 186 276 300 20 336 96 260 25 117 309 320 229 228 205 207 178 177 194 190 189 149 146 107 184 148 134 131 73 91 121 127 126 127 135 130 128 131 128 127
198 177 198 158 157 238 304 297 346 38 344 310 330 64 342 163 183 190 196 194 156 187 170 167 125 99 121 76 134 135 126 149 145 142 130 123 119 126 132 131 133 115 138
191 181 153 155 214 187 12 355 12 3 346 330 18 59 72 155 170 181 206 165 173 200 162 142 129 161 113 151 127 73 80 93 143 130 119 119 117 116 115 117 109 133 150
184 160 159 164 177 136 146 35 347 35 2 354 18 60 83 45 34 164 201 207 171 252 167 142 154 157 143 176 117 113 92 99 81 102 111 114 107 103 110 119 129 121 131
165 156 156 191 160 217 182 59 16 5 360 21 60 65 74 66 85 145 171 221 184 117 201 137 136 141 134 115 102 124 116 106 131 114 121 115 121 121 117 118 121 132 134